User: anonymous   Login
Location: Kuffner-Sternwarte
(48.2130°N, 16.2960°E)
Time: 16:37:11
(UTC+02:00)
Language:

XW-2A - Orbit

View from above orbital plane
View from above orbital plane
View from above satellite
View from above satellite

Ground track
Ground track

The orbit data is extracted from the following two-line orbital elements,

1 40903U 15049E   19177.11114638  .00001306  00000-0  32728-4 0  9991
2 40903  97.3362 219.9179 0015442 115.6632 329.0179 15.41851001211399
Epoch (UTC): 26 June 2019 02:40:03
Eccentricity: 0.0015442
inclination: 97.3362°
perigee height: 430 km
apogee height: 451 km
right ascension of ascending node: 219.9179°
argument of perigee: 115.6632°
revolutions per day: 15.41851001
mean anomaly at epoch: 329.0179°
orbit number at epoch: 21139

The dashed part of the orbit path shows where the satellite is in the earth's shadow,  

DLR